CAPE
0 0 0 0 0 0 0 0 0 0 0 0 0 0 0 0 0 0 0 0 0 0 0 0 0 0 0 0 0 448 674 838 904 1130 1126 1251 1505 1713 1784 1875 1776 1747 1681 1395 917 864 1063 1052 1016 1053 1236 1263 1282 1196 960 950 635 443 626 879 956 884 758 789 826 826 788 837 888 1012 1101 1137 1170 1252 1210 1201 1189 1084 871 667 683 729 738 668 541 508
0 0 0 0 0 0 0 0 0 0 0 0 0 0 0 0 0 0 0 0 0 0 0 0 0 0 0 0 0 0 737 837 1022 1198 1135 1182 1248 1304 1474 1331 1136 797 723 620 729 691 1013 1282 1500 1579 1512 1650 1449 1096 1071 828 594 821 652 804 725 769 759 584 656 798 649 747 963 1028 1106 1088 1133 1144 1008 956 934 913 741 671 688 834 812 630 511 505
0 0 0 0 0 0 0 0 0 0 0 0 0 0 0 0 0 0 0 0 0 0 0 0 0 0 0 0 0 0 495 938 1035 1120 1027 966 896 1001 968 898 701 638 681 526 736 1253 1816 1878 1865 1760 1693 1844 1714 1412 939 726 682 948 866 893 875 687 303 615 645 686 654 740 982 1062 1058 1029 951 911 855 759 704 740 760 720 746 822 823 696 575 601
0 0 0 0 0 0 0 0 0 0 0 0 0 0 0 0 0 0 0 0 0 0 0 0 0 0 0 0 0 0 0 26 845 810 758 822 901 894 900 879 827 964 1094 965 1019 1673 1731 1842 1855 1810 1768 1803 1927 952 594 662 790 874 859 851 658 174 420 708 521 582 645 748 1042 1110 946 928 919 956 934 922 807 751 746 722 714 810 793 717 672 688
0 0 0 0 0 0 0 0 0 0 0 0 0 0 0 0 0 0 0 0 0 0 0 0 0 0 0 0 0 0 0 0 8 694 706 704 818 909 944 1060 1057 1238 1355 1280 1288 1616 1680 1828 1833 1882 1792 1848 1736 1069 782 805 941 737 623 756 457 533 744 599 461 466 528 775 1066 1043 982 1016 960 935 965 948 893 748 759 615 498 595 723 725 615 620
0 0 0 0 0 0 0 0 0 0 0 0 0 0 0 0 0 0 0 0 0 0 0 0 0 0 0 0 0 0 0 0 0 176 499 714 850 1036 1307 1361 1444 1529 1233 1198 1308 1612 1804 1804 1922 1996 1988 1965 1594 1188 892 986 1082 764 818 602 497 814 832 695 574 343 441 700 985 992 998 1054 1002 944 887 836 801 730 666 663 523 500 544 585 629 605
0 0 0 0 0 0 0 0 0 0 0 0 0 0 0 0 0 0 0 0 0 0 0 0 0 0 0 0 0 0 310 592 550 374 403 502 664 898 1237 1417 1332 1225 1051 1004 1356 1508 1799 1920 2094 2040 2055 1844 1583 1138 985 1049 1161 671 631 617 731 828 769 673 492 472 587 755 953 1010 972 982 965 834 856 865 746 672 611 562 518 529 543 557 628 567
0 0 0 0 0 0 0 0 0 0 0 0 0 0 0 0 0 0 0 0 0 0 0 0 0 0 0 0 0 252 543 713 931 814 691 504 449 836 1018 1191 1169 1047 934 1058 1246 1474 1682 1952 2123 2092 1986 1829 1519 1106 1126 1080 824 655 738 768 882 793 704 653 550 620 738 848 986 1035 978 922 913 739 750 849 728 650 603 566 556 509 518 471 436 424
0 0 0 0 0 0 0 0 0 0 0 0 0 0 0 0 0 0 0 0 0 0 0 0 0 0 0 354 648 330 638 938 882 938 739 594 585 565 794 887 1013 1029 1043 1083 1170 1313 1498 1792 2018 2064 1885 1749 1330 1110 1126 832 907 762 844 894 922 824 740 669 635 734 860 978 1024 1013 967 890 851 704 642 739 734 653 593 565 594 528 432 386 342 407
0 0 0 0 0 0 0 0 0 0 0 0 0 0 0 0 0 0 0 0 0 0 0 0 0 0 71 777 820 911 998 968 857 818 867 762 728 764 848 888 1057 1109 1091 1165 1362 1438 1604 1786 1846 1798 1548 1265 1165 1145 761 802 921 871 967 932 897 808 715 731 753 813 935 1006 1022 986 905 800 724 612 567 700 802 734 547 547 508 424 465 437 430 411
0 0 0 0 0 0 0 0 0 0 0 0 0 0 0 0 0 0 0 0 0 0 0 0 0 0 221 888 944 1178 1167 1006 875 1035 953 1006 954 929 1063 1249 1306 1439 1376 1398 1529 1614 1722 1830 1675 1423 1320 1185 807 825 693 617 779 931 1013 973 937 865 833 824 974 1008 1016 1045 1050 1022 939 784 646 634 626 652 784 673 465 441 405 467 551 466 436 448
0 0 0 0 0 0 0 0 0 0 0 0 0 0 0 0 0 0 0 0 0 0 0 0 0 0 0 660 1003 1160 1114 886 747 836 1036 916 1032 1131 1131 1238 1624 1764 1869 1880 1855 1786 1666 1442 1207 1235 1446 1534 1177 816 636 614 813 1034 1102 1031 960 834 722 688 738 884 989 1006 988 980 909 831 721 695 755 708 658 586 494 402 429 531 416 397 440 510
0 0 0 0 0 0 0 0 0 0 0 0 0 0 0 0 0 0 0 0 0 0 0 0 0 0 362 363 847 917 868 900 921 814 874 1076 917 1064 1297 1236 1239 1412 1717 1759 1524 1137 941 944 1249 1326 1414 1348 1518 1166 772 816 881 934 1061 1061 979 959 931 912 888 895 980 1003 986 974 928 868 753 739 811 739 672 577 507 347 463 423 393 432 502 601
0 0 0 0 0 0 0 0 0 0 0 0 0 0 0 0 0 0 0 0 0 0 0 0 0 169 479 440 616 733 691 569 761 843 800 907 1064 1080 1025 1084 1106 1208 1333 1469 1458 1298 1349 1452 1612 1626 1513 1641 1650 1216 806 710 913 1151 1087 1075 1047 1027 1009 1070 1099 1092 1013 1034 1061 1047 991 927 802 751 800 764 687 617 488 156 374 437 444 525 498 506
0 0 0 0 0 0 0 0 0 0 0 0 0 0 0 0 0 0 0 0 0 0 0 0 0 124 309 248 87 285 282 757 605 719 762 756 851 1065 1153 1191 1311 1364 1508 1584 1693 1792 1896 1997 2049 2004 1897 1615 1195 1186 930 900 761 644 920 1043 1090 994 664 657 895 1049 1100 1048 1073 1027 963 884 813 772 767 763 662 476 378 148 413 421 468 526 529 545
0 0 0 0 0 0 0 0 0 0 0 0 0 0 0 0 0 0 0 0 0 0 0 96 135 178 189 274 462 648 737 818 800 747 642 648 709 825 1102 1209 1214 1210 1238 1295 1360 1375 1413 1426 1270 1256 1480 1432 1164 1240 1027 759 737 689 703 853 1037 906 782 681 645 840 938 984 1103 1088 1000 950 886 759 742 744 592 365 177 360 405 463 544 417 466 508
0 0 0 0 0 0 0 0 0 0 0 0 0 0 0 0 0 0 0 0 0 0 0 238 307 249 282 190 350 459 741 908 819 766 837 813 717 687 669 744 849 1041 1040 1177 1309 1318 1340 1302 1193 1100 1024 1034 853 671 753 928 978 948 871 830 850 883 804 863 818 630 775 926 994 1032 1025 981 887 770 757 714 577 359 168 387 458 497 524 464 435 438
0 0 0 0 0 0 0 0 0 0 0 0 0 0 0 0 0 0 0 0 0 0 0 268 431 263 270 253 287 448 337 390 470 690 635 649 704 649 591 594 497 492 720 892 857 846 907 1052 967 831 694 884 592 367 462 587 701 771 692 614 684 842 854 875 921 876 910 948 974 985 990 925 939 948 856 676 563 371 331 474 567 626 538 471 447 409
0 0 0 0 0 0 0 0 0 0 0 0 0 0 0 0 0 0 0 0 0 0 0 55 276 222 189 108 210 412 648 602 621 606 573 572 602 595 583 529 490 489 535 528 564 587 698 725 727 889 849 866 819 850 606 364 469 597 582 674 607 672 798 897 909 1051 994 1009 957 996 1101 1033 954 846 798 608 533 396 432 401 486 505 390 466 427 389
0 0 0 0 1 2 0 0 0 0 0 0 0 0 0 0 0 0 0 0 0 0 0 146 101 138 94 147 329 536 641 549 487 531 483 490 594 581 612 574 590 561 562 575 599 613 615 666 742 731 780 744 532 483 552 414 306 385 579 715 732 473 750 932 982 1032 1053 1072 1031 1019 1147 1139 997 963 828 637 473 502 466 453 306 359 410 388 395 395
0 0 0 0 3 1 3 0 0 0 0 0 0 0 0 0 0 0 0 0 0 0 0 16 95 92 180 383 442 559 667 554 474 500 432 412 440 580 662 628 553 596 561 586 622 615 633 570 516 514 439 363 330 413 510 497 368 316 608 713 656 745 917 953 913 913 982 989 1010 1023 1085 1120 1118 1053 830 661 452 542 568 469 297 406 419 425 408 413
0 0 0 0 0 6 11 0 1 0 0 0 0 0 0 0 0 0 0 0 0 0 0 0 48 97 114 280 226 592 537 527 512 518 486 426 413 521 337 724 750 613 739 686 677 603 488 486 479 448 401 381 397 399 380 547 556 440 516 713 801 794 739 819 885 871 819 851 917 918 1011 1077 1093 1020 836 669 583 619 529 418 386 259 475 466 403 384
36 1 0 0 2 15 16 11 6 2 0 0 0 42 0 0 0 0 0 0 0 0 0 0 152 148 103 186 378 470 426 411 401 434 462 440 560 521 498 542 538 581 550 549 564 565 497 397 345 377 414 458 451 419 430 430 437 446 498 511 493 490 648 550 548 749 802 825 854 884 866 976 1004 947 688 550 682 653 509 390 411 341 350 320 381 443
362 0 0 0 2 17 20 27 7 0 46 57 25 36 15 4 0 0 0 0 0 5 2 21 184 131 146 232 264 246 412 366 372 417 374 424 505 448 373 504 488 405 515 465 421 587 580 527 508 592 635 659 542 466 440 431 402 373 459 638 564 499 449 476 645 666 627 690 826 816 686 647 920 938 642 701 671 716 553 384 294 323 324 353 397 348
28 0 0 0 0 10 15 23 14 2 0 0 15 27 42 2 0 0 2 2 0 8 5 2 64 114 141 131 80 256 327 433 432 399 386 460 432 332 310 326 370 346 382 352 230 335 588 652 676 704 724 620 586 544 452 507 465 374 309 236 308 494 505 489 533 591 667 605 672 731 753 674 923 767 584 757 652 644 507 402 377 395 377 381 362 272
67 45 0 0 0 3 11 10 17 8 9 0 0 0 9 19 0 0 42 0 48 17 0 2 102 56 195 140 146 319 368 446 458 441 364 391 388 328 0 233 380 359 392 330 146 165 250 317 493 534 526 516 523 503 445 419 424 452 366 263 235 246 249 378 506 541 600 632 588 635 674 660 716 752 578 590 603 486 429 376 291 404 409 408 340 259
98 13 0 0 0 0 57 37 59 84 19 4 3 0 0 0 0 0 0 0 17 23 10 36 147 201 167 103 84 79 410 405 469 411 307 109 270 266 0 0 307 336 346 242 73 56 25 238 239 272 289 294 316 222 71 71 185 233 270 295 266 238 247 255 337 388 449 550 604 617 630 642 587 690 399 655 470 414 351 323 361 425 387 316 356 308
15 66 56 24 97 98 109 97 144 115 35 118 4 2 0 0 0 0 0 100 34 8 58 175 198 188 188 132 70 166 59 129 263 234 0 42 281 355 230 227 0 238 289 108 74 34 0 0 24 109 1 0 0 1 1 1 0 1 1 1 66 199 223 242 245 342 415 441 455 575 594 588 548 696 435 578 373 322 350 358 386 391 299 257 293 316
39 90 64 84 80 39 27 46 42 24 11 24 15 3 0 0 0 0 1 2 9 6 112 96 71 78 130 107 56 31 32 54 147 233 54 2 198 165 102 0 243 297 146 167 89 41 1 0 0 0 0 0 0 0 0 0 0 0 0 0 0 1 14 146 161 259 314 294 236 279 448 470 470 625 424 518 408 268 320 331 291 377 286 264 283 274
140 41 53 57 54 42 64 68 74 54 74 18 33 6 7 1 2 0 10 4 0 55 178 95 17 6 1 1 55 200 209 169 49 89 0 0 150 134 59 192 213 79 178 183 74 63 8 0 0 0 0 0 0 0 0 0 0 1 2 1 0 0 11 80 116 24 44 32 18 13 278 424 501 636 460 495 414 296 334 188 105 307 164 188 243 226
0 93 42 41 48 67 73 53 62 61 35 28 26 15 6 30 0 0 4 18 10 22 15 4 30 0 1 2 46 88 202 159 114 35 20 0 2 41 73 2 177 0 47 133 143 69 18 0 0 0 0 0 0 0 0 0 1 1 2 0 0 0 10 56 16 179 144 207 62 31 159 439 516 564 431 504 306 280 238 103 7 115 154 207 228 187
138 105 57 50 22 25 22 51 39 39 20 13 15 28 51 90 27 33 12 10 0 8 14 4 6 5 2 1 8 67 162 149 34 24 12 2 1 1 1 70 122 10 31 61 144 108 42 14 2 0 0 0 0 1 0 0 0 0 0 0 0 0 0 31 86 1 92 120 140 28 148 327 485 555 501 391 266 194 132 112 115 138 266 212 210 187
46 88 55 42 55 20 8 11 24 16 18 0 19 41 107 124 71 111 38 68 17 35 35 8 15 7 6 2 0 0 1 4 9 3 0 1 10 1 1 35 2 2 29 24 92 122 84 43 11 4 0 0 0 0 0 1 1 0 0 1 0 1 0 56 15 12 19 21 66 51 21 243 358 496 426 331 167 191 111 128 98 0 194 220 181 197
2 16 38 21 19 9 23 30 8 5 3 0 0 0 22 43 65 27 60 70 38 12 35 31 68 20 12 11 0 0 1 10 20 3 6 5 5 2 1 2 51 76 19 14 11 44 73 48 21 4 2 2 0 0 0 1 2 2 1 1 3 2 26 8 22 74 12 41 43 37 21 21 244 338 328 242 208 192 181 49 33 55 247 212 142 188
0 0 0 4 22 5 1 9 0 0 0 0 0 1 0 10 24 18 15 6 6 11 0 9 62 69 32 15 14 1 1 3 3 4 10 3 6 63 51 22 1 3 2 2 4 5 17 27 30 5 2 2 0 0 1 1 1 4 3 1 1 0 0 0 8 80 123 58 46 68 70 197 328 329 273 185 222 215 147 8 33 86 238 153 57 38
0 0 1 0 1 11 9 10 14 0 0 0 0 0 2 2 1 0 0 0 5 1 0 0 0 0 1 8 8 7 3 1 5 9 18 11 6 30 54 56 50 2 3 58 5 1 1 1 2 1 0 0 0 0 0 0 2 4 4 4 2 2 0 0 0 35 89 96 69 72 30 102 181 106 82 37 164 116 70 20 62 75 33 13 0 0
0 0 3 4 0 59 8 0 1 1 0 0 0 0 2 1 2 2 1 0 0 6 0 0 1 2 2 5 5 6 7 7 2 2 6 6 7 6 4 7 7 9 29 95 99 53 21 2 0 2 3 8 0 0 0 0 1 1 4 4 5 4 1 2 16 18 64 80 21 54 56 20 61 77 66 90 67 28 8 27 48 39 24 28 16 0
77 1 17 2 0 0 1 2 2 5 3 0 0 0 0 1 2 1 0 0 0 0 3 1 1 1 1 4 8 8 14 10 10 6 6 6 2 10 17 16 13 6 11 43 46 69 37 6 2 1 2 8 5 0 0 1 0 0 0 1 2 3 1 0 0 0 0 1 13 28 42 49 81 101 101 62 22 28 24 5 36 34 20 0 0 0
77 27 30 3 11 0 0 1 3 2 1 0 0 0 0 0 0 0 0 0 1 0 4 0 1 0 1 4 4 8 10 16 11 16 14 12 14 12 15 10 7 7 12 8 0 11 49 50 34 2 2 8 2 0 0 0 0 0 1 0 1 4 1 0 0 0 0 0 0 6 12 23 49 82 93 46 44 50 56 28 30 40 33 14 10 0
13 87 50 4 33 1 0 0 0 0 0 0 0 0 0 1 0 0 0 0 0 0 4 0 1 2 4 6 4 6 8 18 10 6 5 5 4 6 18 18 10 13 11 5 1 0 0 0 0 0 0 1 1 0 0 0 0 0 0 0 3 3 0 0 1 0 0 0 0 0 0 1 0 14 54 105 47 45 47 32 25 28 22 1 0 13
36 71 56 13 1 0 0 0 1 0 0 0 0 1 1 1 0 0 0 0 0 3 0 0 1 1 2 5 6 9 3 4 3 5 6 13 9 13 20 25 15 7 4 8 8 11 2 1 0 0 0 3 2 0 0 0 0 0 0 2 6 2 0 0 2 2 2 0 0 0 0 0 0 0 0 2 3 9 4 7 6 4 9 14 16 9
21 32 3 1 0 0 0 0 0 0 0 0 0 0 0 0 0 0 0 1 1 1 2 0 1 1 0 2 6 8 11 12 14 14 12 6 11 13 9 13 13 14 14 14 14 12 6 4 1 0 0 0 1 2 0 1 2 0 1 1 0 0 0 0 0 2 2 0 0 0 0 0 0 0 0 0 7 18 12 14 8 13 15 10 6 1
5 1 0 1 0 0 1 1 0 0 0 0 0 0 1 0 0 0 0 0 1 0 0 1 1 1 0 0 1 1 9 14 11 15 18 19 15 10 5 0 0 1 6 11 18 15 15 10 4 10 8 3 2 0 0 8 4 0 0 4 3 0 0 0 0 4 8 3 0 1 0 0 0 0 0 0 0 0 0 2 18 23 20 19 18 12
8 1 0 0 0 4 4 5 0 0 0 0 0 0 0 0 0 3 5 4 2 2 4 4 1 1 0 0 2 6 8 14 16 11 11 11 7 2 3 6 10 11 8 12 20 22 20 18 18 11 3 3 9 2 2 1 3 2 6 6 5 9 4 0 0 1 0 1 5 0 0 0 0 0 0 0 0 0 0 2 2 3 6 9 8 6
0 0 0 0 0 0 0 1 0 2 5 2 0 0 1 0 0 5 8 5 3 6 4 4 3 3 2 1 1 1 4 2 4 2 2 1 3 3 4 1 0 1 0 0 0 1 3 10 12 15 10 12 19 20 5 2 3 5 6 7 9 12 10 5 0 3 9 5 1 0 0 0 0 0 0 7 8 5 4 2 1 3 3 6 10 12
1 0 0 0 0 1 2 6 7 6 4 5 0 0 0 0 0 0 0 1 0 4 5 4 8 4 2 0 0 2 2 0 0 1 1 3 2 0 0 2 1 0 0 0 1 2 2 4 5 4 6 12 8 0 1 0 1 2 0 1 2 3 3 2 0 5 4 2 3 2 4 2 4 2 4 4 0 0 0 0 0 0 0 0 0 0
0 0 0 0 0 0 0 0 1 4 2 0 1 0 0 0 0 1 0 3 4 4 0 1 1 1 0 2 1 0 0 0 0 3 2 1 0 1 1 0 0 0 0 0 0 0 0 0 0 0 0 0 0 0 0 0 1 1 0 0 2 3 6 4 2 1 3 0 1 0 0 8 8 7 1 1 0 0 0 0 0 0 0 0 0 0
0 0 1 7 6 0 1 2 0 0 1 2 1 2 0 0 0 0 1 2 2 0 3 1 1 0 1 2 2 2 1 1 0 0 0 0 1 1 2 2 2 0 1 0 0 0 0 0 0 0 0 0 0 0 0 0 1 2 1 1 2 5 8 8 6 3 0 2 9 3 6 12 13 11 7 0 0 0 0 0 0 0 0 0 0 0
0 0 0 0 1 8 4 1 0 0 0 0 0 0 0 0 0 0 0 0 0 0 0 0 2 0 1 0 0 4 4 1 3 4 2 1 6 5 4 3 2 3 5 2 2 0 0 0 0 0 0 0 0 0 0 0 0 3 6 4 0 0 0 1 1 4 3 2 3 12 13 7 7 11 14 10 4 1 0 0 0 0 0 0 0 0
0 0 0 0 2 2 2 1 0 0 0 0 0 0 0 0 0 0 0 0 0 0 0 0 0 0 0 0 0 0 0 0 0 0 2 2 0 0 2 1 1 1 1 2 4 5 4 0 0 0 0 0 0 0 0 0 4 4 0 0 0 0 0 0 1 0 0 0 0 0 0 2 6 8 10 12 9 6 0 0 0 0 0 0 0 0
0 0 0 0 0 0 0 0 0 0 0 0 0 0 0 0 0 0 0 0 0 0 0 0 0 0 0 0 0 0 0 0 0 0 0 0 0 0 0 0 0 1 4 3 2 4 4 2 2 3 0 0 0 0 0 0 1 0 0 0 0 0 0 2 3 0 0 0 0 0 0 0 0 0 4 5 5 1 0 0 0 0 0 0 0 0
Wind_Speed
nan nan nan nan nan nan nan nan nan nan nan nan nan nan nan nan nan nan nan nan nan nan nan nan nan nan nan nan nan 12 21 25 23 19 17 16 16 14 13 14 18 26 27 27 28 24 19 21 24 27 27 29 34 35 32 34 33 30 20 21 25 26 26 29 24 21 18 19 21 19 17 16 15 15 16 15 13 10 9 8 8 8 9 9 10 10
nan nan nan nan nan nan nan nan nan nan nan nan nan nan nan nan nan nan nan nan nan nan nan nan nan nan nan nan nan nan 26 24 22 20 16 16 15 14 15 17 20 27 27 29 26 20 18 20 25 30 29 31 34 28 30 32 36 37 30 26 25 26 33 34 31 20 17 16 15 15 15 14 13 15 14 12 11 9 9 9 8 8 9 9 11 11
nan nan nan nan nan nan nan nan nan nan nan nan nan nan nan nan nan nan nan nan nan nan nan nan nan nan nan nan nan nan 24 22 22 22 21 21 19 17 14 17 22 29 28 27 26 24 23 22 24 29 31 29 30 30 32 31 36 36 35 32 29 21 22 34 26 18 14 16 15 15 15 12 12 14 14 13 13 12 10 9 10 10 10 11 11 11
nan nan nan nan nan nan nan nan nan nan nan nan nan nan nan nan nan nan nan nan nan nan nan nan nan nan nan nan nan nan nan nan 17 20 21 22 24 22 19 21 24 28 32 30 29 31 31 27 26 30 33 31 29 33 35 35 33 32 29 32 32 30 30 20 13 11 17 18 15 16 16 14 13 11 12 14 13 13 11 8 10 10 11 11 10 10
nan nan nan nan nan nan nan nan nan nan nan nan nan nan nan nan nan nan nan nan nan nan nan nan nan nan nan nan nan nan nan nan nan 16 18 16 19 24 24 24 24 29 33 34 31 33 36 32 27 29 31 31 31 31 33 33 32 29 29 29 32 33 37 32 29 21 14 12 14 17 19 16 16 15 14 13 12 10 8 9 9 7 9 10 10 9
nan nan nan nan nan nan nan nan nan nan nan nan nan nan nan nan nan nan nan nan nan nan nan nan nan nan nan nan nan nan nan nan nan 21 21 23 25 30 26 21 26 36 38 38 35 28 27 29 27 28 29 27 26 29 30 31 32 29 28 28 30 35 40 39 35 29 23 16 11 12 13 12 11 11 11 9 8 8 7 6 9 9 8 9 9 9
nan nan nan nan nan nan nan nan nan nan nan nan nan nan nan nan nan nan nan nan nan nan nan nan nan nan nan nan nan nan 28 29 27 30 27 29 29 29 25 27 29 31 34 37 39 34 27 24 26 27 26 24 27 27 29 29 31 30 29 26 26 35 36 35 33 26 19 16 12 10 9 8 8 10 9 10 9 8 7 10 9 8 9 9 10 11
nan nan nan nan nan nan nan nan nan nan nan nan nan nan nan nan nan nan nan nan nan nan nan nan nan nan nan nan nan 23 33 29 31 30 29 28 26 24 27 30 26 25 28 32 35 34 26 24 26 25 22 24 27 29 28 28 28 29 26 24 21 24 29 28 29 28 21 18 14 12 10 8 7 7 8 10 11 11 10 11 10 9 8 10 12 12
nan nan nan nan nan nan nan nan nan nan nan nan nan nan nan nan nan nan nan nan nan nan nan nan nan nan nan 22 22 28 34 30 28 25 26 28 28 33 33 32 31 26 25 30 32 30 23 21 24 25 24 25 28 27 28 28 27 27 24 21 16 16 21 23 28 28 23 17 16 15 13 11 7 9 11 12 13 13 13 13 11 9 9 11 12 13
nan nan nan nan nan nan nan nan nan nan nan nan nan nan nan nan nan nan nan nan nan nan nan nan nan nan nan 25 28 24 31 29 25 23 24 26 27 29 32 30 28 26 28 30 33 32 28 25 23 23 24 16 19 22 24 27 29 27 24 20 15 11 14 16 19 23 23 18 12 11 10 11 14 16 15 13 12 13 13 12 10 9 10 11 12 12
nan nan nan nan nan nan nan nan nan nan nan nan nan nan nan nan nan nan nan nan nan nan nan nan nan nan 31 28 29 30 29 27 25 24 23 25 26 28 26 27 26 23 26 30 32 32 32 32 30 28 29 22 17 19 23 25 25 27 24 21 17 14 19 22 19 17 20 20 16 14 12 11 13 16 16 14 13 14 13 12 11 11 11 12 11 12
nan nan nan nan nan nan nan nan nan nan nan nan nan nan nan nan nan nan nan nan nan nan nan nan nan nan nan 27 31 31 32 31 29 26 26 27 28 27 28 29 30 29 27 28 31 32 31 26 25 28 32 29 23 23 25 24 22 20 22 24 23 21 20 20 20 19 18 21 21 21 19 15 14 14 13 12 13 14 14 15 14 14 15 15 15 14
nan nan nan nan nan nan nan nan nan nan nan nan nan nan nan nan nan nan nan nan nan nan nan nan nan nan 30 28 33 37 32 31 29 27 28 29 32 33 34 34 33 33 33 32 33 34 32 32 22 25 28 26 24 27 24 22 22 23 25 26 26 24 25 23 23 22 21 21 23 23 22 21 21 18 14 13 13 14 15 16 19 18 16 19 19 16
nan nan nan nan nan nan nan nan nan nan nan nan nan nan nan nan nan nan nan nan nan nan nan nan nan 29 27 33 30 32 34 31 28 27 29 31 34 35 35 35 35 34 35 33 33 35 33 32 28 26 29 29 28 27 27 26 25 23 24 24 26 27 26 25 24 25 26 24 25 24 22 21 22 19 16 14 14 14 15 18 20 20 20 20 18 18
nan nan nan nan nan nan nan nan nan nan nan nan nan nan nan nan nan nan nan nan nan nan nan nan nan 25 31 27 nan 23 31 32 30 28 27 29 31 30 32 35 34 33 32 31 32 33 34 34 32 30 33 33 32 29 24 24 27 26 21 24 25 27 27 24 24 27 28 25 24 24 22 19 18 17 15 14 14 16 17 19 21 21 23 22 20 20
nan nan nan nan nan nan nan nan nan nan nan nan nan nan nan nan nan nan nan nan nan nan nan nan 24 27 31 23 26 26 31 33 32 32 32 32 32 32 31 32 31 31 31 30 31 31 30 31 32 32 32 35 31 28 26 24 24 28 28 25 27 28 25 26 26 26 26 24 22 24 25 23 23 21 20 18 17 17 18 20 21 22 24 23 23 22
nan nan nan nan nan nan nan nan nan nan nan nan nan nan nan nan nan nan nan nan nan nan nan 20 27 28 26 28 30 26 31 32 32 32 31 31 31 32 31 29 29 27 28 28 29 30 30 30 29 28 29 32 32 31 29 30 29 30 29 28 28 29 28 24 23 21 19 17 17 20 23 26 26 25 23 21 19 20 21 22 22 23 22 24 24 23
nan nan nan nan nan nan nan nan nan nan nan nan nan nan nan nan nan nan nan nan nan nan nan 23 25 21 23 25 25 28 32 31 32 32 33 32 30 29 28 27 28 28 28 29 29 29 29 29 29 28 28 27 28 30 31 30 30 30 30 27 25 24 22 16 13 13 11 10 14 19 21 23 23 21 21 21 22 24 26 25 23 23 24 22 23 24
nan nan nan nan nan nan nan nan nan nan nan nan nan nan nan nan nan nan nan nan nan nan nan nan 25 25 25 25 24 27 29 32 32 33 35 34 31 28 27 28 30 31 30 29 29 28 27 27 27 29 25 22 22 25 28 28 27 28 31 27 22 20 18 13 10 11 11 12 15 19 20 21 20 18 19 21 23 26 27 24 21 19 21 23 23 25
nan nan nan nan nan nan nan nan nan nan nan nan nan nan nan nan nan nan nan nan nan nan nan 23 29 23 nan 24 25 28 28 32 34 33 33 32 29 27 26 28 30 29 29 29 27 25 23 24 25 24 21 19 16 16 17 19 21 24 25 21 16 16 17 16 12 13 15 16 18 18 19 19 18 17 18 18 21 23 23 23 22 21 23 21 23 26
nan nan nan nan nan nan nan nan nan nan nan nan nan nan nan nan nan nan nan nan nan nan nan nan nan nan 23 23 23 25 27 28 30 31 29 29 29 29 30 29 29 30 29 28 25 21 21 21 22 21 19 17 13 11 9 10 10 12 12 14 15 17 20 19 17 17 19 18 16 16 15 15 16 16 17 17 18 19 19 20 23 23 23 23 23 26
nan nan nan nan nan nan nan nan nan nan nan nan nan nan nan nan nan nan nan nan nan nan nan nan nan nan 26 25 24 27 26 25 26 28 28 30 29 27 29 30 29 28 28 26 23 21 21 22 21 19 19 20 20 18 13 8 8 3 6 13 19 25 25 23 21 19 17 15 13 14 14 14 16 17 18 17 18 18 18 19 22 24 25 24 23 26
nan nan nan nan nan nan nan nan nan nan nan nan nan nan nan nan nan nan nan nan nan nan nan nan 30 24 26 23 25 27 27 27 26 27 28 28 26 24 24 26 27 27 26 23 22 21 21 21 19 18 19 20 22 21 18 11 4 1 5 10 16 23 23 20 18 16 14 13 12 12 14 19 19 19 20 19 20 20 19 19 22 24 26 26 25 25
33 nan nan nan nan nan nan nan nan nan nan nan nan nan nan nan nan nan nan nan nan nan nan nan 30 25 25 24 26 28 29 28 26 25 26 25 22 21 22 24 24 24 24 23 22 22 21 19 17 18 18 19 19 17 15 11 7 5 5 7 13 17 15 14 12 9 9 11 11 13 20 20 20 22 21 20 22 22 20 20 23 25 27 26 25 25
nan nan nan nan nan nan nan nan nan nan nan nan nan nan nan nan nan nan nan nan nan nan nan nan nan 26 26 25 nan 28 30 28 25 23 21 22 21 21 22 22 21 21 23 23 24 23 21 21 20 17 15 15 14 12 11 10 9 9 10 10 11 12 11 7 7 6 7 10 14 18 19 22 23 24 18 20 23 24 21 22 24 25 27 26 24 24
nan nan nan nan nan nan nan nan nan nan nan nan nan nan nan nan nan nan nan nan nan nan nan nan 31 nan 32 29 28 28 28 26 22 19 19 18 20 23 nan 23 22 22 23 23 22 23 22 20 18 17 16 14 14 12 12 13 13 13 15 17 16 15 11 10 5 6 10 13 15 17 18 18 20 20 19 21 23 23 23 23 25 26 27 26 25 24
nan nan nan nan nan nan nan nan nan nan nan nan nan nan nan nan nan nan nan nan nan nan nan nan 34 36 35 32 nan nan 28 28 25 22 20 18 18 19 nan nan 22 21 21 21 nan nan nan 20 20 20 18 16 15 14 nan nan 14 15 15 15 17 15 12 11 9 7 12 14 12 12 15 17 19 19 20 17 19 23 25 25 26 28 27 27 26 25
nan nan nan nan nan nan 36 nan 36 40 nan 37 nan nan nan nan nan nan nan nan nan nan nan 31 38 37 34 34 nan 31 nan 29 27 25 nan nan 17 17 19 20 nan 21 20 19 nan nan nan nan nan 20 nan nan nan nan nan nan nan nan nan nan nan 12 12 11 11 10 12 13 10 9 14 19 23 18 20 20 22 24 25 26 27 28 28 27 27 26
nan nan nan nan nan nan nan nan nan nan nan nan nan nan nan nan nan nan nan nan nan nan 29 nan nan nan 34 34 nan nan nan nan 28 27 nan nan 18 19 21 nan 22 22 21 21 nan nan nan nan nan nan nan nan nan nan nan nan nan nan nan nan nan nan nan 11 12 13 17 14 10 12 17 21 22 20 22 23 24 24 28 27 26 29 28 28 30 30
39 nan nan nan nan nan nan nan nan nan nan nan nan nan nan nan nan nan nan nan nan nan 38 nan nan nan nan nan nan 27 22 21 nan nan nan nan 23 21 nan 21 24 nan 22 22 nan nan nan nan nan nan nan nan nan nan nan nan nan nan nan nan nan nan nan nan 13 nan nan nan nan nan 19 21 20 20 23 23 24 21 23 27 24 28 30 31 32 30
nan nan nan nan nan nan nan nan nan nan nan nan nan nan nan nan nan nan nan nan nan nan nan nan nan nan nan nan nan nan 23 21 21 nan nan nan nan nan nan nan 24 nan nan 23 22 nan nan nan nan nan nan nan nan nan nan nan nan nan nan nan nan nan nan nan nan 15 12 11 nan nan 20 21 20 22 23 24 24 21 22 29 nan 29 32 32 31 30
45 36 nan nan nan nan nan nan nan nan nan nan nan nan nan nan nan nan nan nan nan nan nan nan nan nan nan nan nan nan 29 29 nan nan nan nan nan nan nan nan 25 nan nan nan 23 22 nan nan nan nan nan nan nan nan nan nan nan nan nan nan nan nan nan nan nan nan nan 16 16 nan 20 20 21 23 23 26 25 22 24 32 29 27 32 32 31 30
nan nan nan nan nan nan nan nan nan nan nan nan nan nan 40 41 nan 38 nan nan nan nan nan nan nan nan nan nan nan nan nan nan nan nan nan nan nan nan nan nan nan nan nan nan nan 24 nan nan nan nan nan nan nan nan nan nan nan nan nan nan nan nan nan nan nan nan nan nan nan nan nan 20 22 23 24 26 27 24 26 31 nan nan 32 32 31 33
nan nan nan nan nan nan nan nan nan nan nan nan nan nan nan nan nan nan nan nan nan nan nan nan nan nan nan nan nan nan nan nan nan nan nan nan nan nan nan nan nan nan nan nan nan nan nan nan nan nan nan nan nan nan nan nan nan nan nan nan nan nan nan nan nan nan nan nan nan nan nan nan 23 26 26 27 28 26 29 nan nan nan 33 32 33 36
nan nan nan nan nan nan nan nan nan nan nan nan nan nan nan nan nan nan nan nan nan nan nan nan nan nan nan nan nan nan nan nan nan nan nan nan nan nan nan nan nan nan nan nan nan nan nan nan nan nan nan nan nan nan nan nan nan nan nan nan nan nan nan nan nan nan 19 nan nan nan nan 19 23 26 27 28 29 32 33 nan nan nan 33 33 nan nan
nan nan nan nan nan nan nan nan nan nan nan nan nan nan nan nan nan nan nan nan nan nan nan nan nan nan nan nan nan nan nan nan nan nan nan nan nan nan nan nan nan nan nan nan nan nan nan nan nan nan nan nan nan nan nan nan nan nan nan nan nan nan nan nan nan nan nan nan nan nan nan 22 23 26 nan nan 28 33 nan nan nan nan nan nan nan nan
nan nan nan nan nan nan nan nan nan nan nan nan nan nan nan nan nan nan nan nan nan nan nan nan nan nan nan nan nan nan nan nan nan nan nan nan nan nan nan nan nan nan nan nan nan nan nan nan nan nan nan nan nan nan nan nan nan nan nan nan nan nan nan nan nan nan nan nan nan nan nan nan nan nan nan nan nan nan nan nan nan nan nan nan nan nan
nan nan nan nan nan nan nan nan nan nan nan nan nan nan nan nan nan nan nan nan nan nan nan nan nan nan nan nan nan nan nan nan nan nan nan nan nan nan nan nan nan nan nan nan nan nan nan nan nan nan nan nan nan nan nan nan nan nan nan nan nan nan nan nan nan nan nan nan nan nan nan nan nan 28 28 nan nan nan nan nan nan nan nan nan nan nan
nan nan nan nan nan nan nan nan nan nan nan nan nan nan nan nan nan nan nan nan nan nan nan nan nan nan nan nan nan nan nan nan nan nan nan nan nan nan nan nan nan nan nan nan nan nan nan nan nan nan nan nan nan nan nan nan nan nan nan nan nan nan nan nan nan nan nan nan nan nan nan nan nan nan nan nan nan nan nan nan nan nan nan nan nan nan
nan nan nan nan nan nan nan nan nan nan nan nan nan nan nan nan nan nan nan nan nan nan nan nan nan nan nan nan nan nan nan nan nan nan nan nan nan nan nan nan nan nan nan nan nan nan nan nan nan nan nan nan nan nan nan nan nan nan nan nan nan nan nan nan nan nan nan nan nan nan nan nan nan nan nan 34 nan nan nan nan nan nan nan nan nan nan
nan nan nan nan nan nan nan nan nan nan nan nan nan nan nan nan nan nan nan nan nan nan nan nan nan nan nan nan nan nan nan nan nan nan nan nan nan nan nan nan nan nan nan nan nan nan nan nan nan nan nan nan nan nan nan nan nan nan nan nan nan nan nan nan nan nan nan nan nan nan nan nan nan nan nan nan nan nan nan nan nan nan nan nan nan nan
nan nan nan nan nan nan nan nan nan nan nan nan nan nan nan nan nan nan nan nan nan nan nan nan nan nan nan nan nan nan nan nan nan nan nan nan nan nan nan nan nan nan nan nan nan nan nan nan nan nan nan nan nan nan nan nan nan nan nan nan nan nan nan nan nan nan nan nan nan nan nan nan nan nan nan nan nan nan nan nan nan nan nan nan nan nan
nan nan nan nan nan nan nan nan nan nan nan nan nan nan nan nan nan nan nan nan nan nan nan nan nan nan nan nan nan nan nan nan nan nan nan nan nan nan nan nan nan nan nan nan nan nan nan nan nan nan nan nan nan nan nan nan nan nan nan nan nan nan nan nan nan nan nan nan nan nan nan nan nan nan nan nan nan nan nan nan nan nan nan nan nan nan
nan nan nan nan nan nan nan nan nan nan nan nan nan nan nan nan nan nan nan nan nan nan nan nan nan nan nan nan nan nan nan nan nan nan nan nan nan nan nan nan nan nan nan nan nan nan nan nan nan nan nan nan nan nan nan nan nan nan nan nan nan nan nan nan nan nan nan nan nan nan nan nan nan nan nan nan nan nan nan nan nan nan nan nan nan nan
nan nan nan nan nan nan nan nan nan nan nan nan nan nan nan nan nan nan nan nan nan nan nan nan nan nan nan nan nan nan nan nan nan nan nan nan nan nan nan nan nan nan nan nan nan nan nan nan nan nan nan nan nan nan nan nan nan nan nan nan nan nan nan nan nan nan nan nan nan nan nan nan nan nan nan nan nan nan nan nan nan nan nan nan nan nan
nan nan nan nan nan nan nan nan nan nan nan nan nan nan nan nan nan nan nan nan nan nan nan nan nan nan nan nan nan nan nan nan nan nan nan nan nan nan nan nan nan nan nan nan nan nan nan nan nan nan nan nan nan nan nan nan nan nan nan nan nan nan nan nan nan nan nan nan nan nan nan nan nan nan nan nan nan nan nan nan nan nan nan nan nan nan
nan nan nan nan nan nan nan nan nan nan nan nan nan nan nan nan nan nan nan nan nan nan nan nan nan nan nan nan nan nan nan nan nan nan nan nan nan nan nan nan nan nan nan nan nan nan nan nan nan nan nan nan nan nan nan nan nan nan nan nan nan nan nan nan nan nan nan nan nan nan nan nan nan nan nan nan nan nan nan nan nan nan nan nan nan nan
nan nan nan nan nan nan nan nan nan nan nan nan nan nan nan nan nan nan nan nan nan nan nan nan nan nan nan nan nan nan nan nan nan nan nan nan nan nan nan nan nan nan nan nan nan nan nan nan nan nan nan nan nan nan nan nan nan nan nan nan nan nan nan nan nan nan nan nan nan nan nan nan nan nan nan nan nan nan nan nan nan nan nan nan nan nan
nan nan nan nan nan nan nan nan nan nan nan nan nan nan nan nan nan nan nan nan nan nan nan nan nan nan nan nan nan nan nan nan nan nan nan nan nan nan nan nan nan nan nan nan nan nan nan nan nan nan nan nan nan nan nan nan nan nan nan nan nan nan nan nan nan nan nan nan nan nan nan nan nan nan nan nan nan nan nan nan nan nan nan nan nan nan
nan nan nan nan nan nan nan nan nan nan nan nan nan nan nan nan nan nan nan nan nan nan nan nan nan nan nan nan nan nan nan nan nan nan nan nan nan nan nan nan nan nan nan nan nan nan nan nan nan nan nan nan nan nan nan nan nan nan nan nan nan nan nan nan nan nan nan nan nan nan nan nan nan nan nan nan nan nan nan nan nan nan nan nan nan nan
nan nan nan nan nan nan nan nan nan nan nan nan nan nan nan nan nan nan nan nan nan nan nan nan nan nan nan nan nan nan nan nan nan nan nan nan nan nan nan nan nan nan nan nan nan nan nan nan nan nan nan nan nan nan nan nan nan nan nan nan nan nan nan nan nan nan nan nan nan nan nan nan nan nan nan nan nan nan nan nan nan nan nan nan nan nan
Wind_Direction
nan nan nan nan nan nan nan nan nan nan nan nan nan nan nan nan nan nan nan nan nan nan nan nan nan nan nan nan nan 245 252 262 278 281 275 280 298 308 303 313 309 296 298 298 307 309 302 287 277 269 261 260 257 266 285 288 295 302 287 296 305 300 292 288 284 280 267 253 260 258 264 271 255 228 225 242 250 256 251 242 240 242 248 253 256 260
nan nan nan nan nan nan nan nan nan nan nan nan nan nan nan nan nan nan nan nan nan nan nan nan nan nan nan nan nan nan 269 277 297 303 307 313 308 310 318 320 313 293 289 292 293 293 278 263 266 271 272 277 283 290 295 295 291 288 294 287 296 305 302 283 276 271 265 250 265 265 266 268 248 226 231 244 247 250 243 233 234 243 246 250 255 256
nan nan nan nan nan nan nan nan nan nan nan nan nan nan nan nan nan nan nan nan nan nan nan nan nan nan nan nan nan nan 272 286 308 316 327 323 314 312 318 315 299 290 294 297 297 293 284 276 275 278 282 286 292 295 284 278 280 287 287 287 287 281 277 277 269 267 253 249 246 254 257 270 244 216 217 226 229 231 234 229 229 238 244 249 251 253
nan nan nan nan nan nan nan nan nan nan nan nan nan nan nan nan nan nan nan nan nan nan nan nan nan nan nan nan nan nan nan nan 304 320 316 314 315 314 319 311 304 299 297 301 294 294 296 290 282 282 287 287 281 271 271 271 279 286 288 297 307 298 291 305 303 262 252 249 245 243 242 244 238 225 225 228 227 229 233 235 228 226 235 246 251 251
nan nan nan nan nan nan nan nan nan nan nan nan nan nan nan nan nan nan nan nan nan nan nan nan nan nan nan nan nan nan nan nan nan 291 279 283 299 302 296 284 292 294 289 283 279 286 296 297 294 288 287 286 279 274 272 274 284 289 295 303 309 298 291 314 336 328 304 276 259 248 241 239 234 231 232 233 228 233 238 243 234 224 229 239 244 235
nan nan nan nan nan nan nan nan nan nan nan nan nan nan nan nan nan nan nan nan nan nan nan nan nan nan nan nan nan nan nan nan nan 259 256 250 249 245 254 260 254 253 267 274 268 266 287 291 277 266 271 280 274 269 267 277 288 295 292 296 304 301 304 319 332 335 333 337 318 276 266 264 249 249 251 253 256 257 265 263 237 232 236 235 225 212
nan nan nan nan nan nan nan nan nan nan nan nan nan nan nan nan nan nan nan nan nan nan nan nan nan nan nan nan nan nan 239 235 237 240 245 256 260 263 256 257 261 266 267 268 269 274 271 260 258 253 259 268 270 268 266 274 285 293 302 303 298 297 306 318 319 310 309 321 334 333 322 302 277 268 248 248 260 268 260 251 252 250 238 228 218 205
nan nan nan nan nan nan nan nan nan nan nan nan nan nan nan nan nan nan nan nan nan nan nan nan nan nan nan nan nan 251 247 240 234 230 230 234 236 254 267 266 267 265 272 278 283 290 290 277 266 264 259 261 267 271 274 277 284 296 305 313 307 294 299 305 307 307 302 303 315 324 331 322 284 266 265 276 276 269 268 263 259 247 236 225 215 215
nan nan nan nan nan nan nan nan nan nan nan nan nan nan nan nan nan nan nan nan nan nan nan nan nan nan nan 243 235 243 250 237 238 233 229 230 235 241 250 258 265 270 278 288 291 291 291 285 278 270 270 265 262 277 289 291 294 298 305 310 303 302 301 299 304 307 310 310 315 314 305 303 279 252 254 263 271 280 275 265 249 241 230 225 218 217
nan nan nan nan nan nan nan nan nan nan nan nan nan nan nan nan nan nan nan nan nan nan nan nan nan nan nan 246 242 242 252 246 246 244 236 234 239 245 254 257 264 274 279 281 287 289 289 290 282 277 268 251 267 281 287 291 289 292 298 302 299 300 288 278 291 301 312 309 298 291 281 278 258 243 242 253 269 273 269 259 244 231 229 226 219 212
nan nan nan nan nan nan nan nan nan nan nan nan nan nan nan nan nan nan nan nan nan nan nan nan nan nan 258 253 247 248 251 253 255 251 234 228 233 241 251 263 268 266 275 284 290 294 299 305 305 296 280 269 245 241 255 270 274 286 294 295 293 265 239 233 233 250 275 277 265 253 257 262 255 244 245 249 247 246 244 245 235 228 226 229 223 218
nan nan nan nan nan nan nan nan nan nan nan nan nan nan nan nan nan nan nan nan nan nan nan nan nan nan nan 254 252 250 249 243 247 241 228 227 228 237 248 255 259 266 268 274 277 276 272 268 284 280 266 263 258 250 248 249 251 265 270 265 262 258 257 251 253 252 257 270 273 269 272 277 267 258 246 249 252 247 245 240 242 234 229 229 233 236
nan nan nan nan nan nan nan nan nan nan nan nan nan nan nan nan nan nan nan nan nan nan nan nan nan nan 241 248 250 253 244 238 235 235 231 230 232 234 241 248 255 259 264 267 270 272 275 278 277 270 258 254 268 284 285 262 261 265 260 255 259 258 265 261 255 252 251 258 266 267 273 272 270 265 252 243 248 247 248 244 242 241 237 236 238 240
nan nan nan nan nan nan nan nan nan nan nan nan nan nan nan nan nan nan nan nan nan nan nan nan nan 246 253 247 236 246 250 244 240 238 238 238 239 240 242 245 249 254 258 262 265 266 268 270 273 265 258 261 272 271 268 268 265 262 255 250 259 262 265 266 258 256 255 257 259 259 265 266 261 260 253 244 250 252 252 252 248 244 240 239 238 240
nan nan nan nan nan nan nan nan nan nan nan nan nan nan nan nan nan nan nan nan nan nan nan nan nan 243 248 248 nan 253 256 255 252 249 247 245 246 250 251 249 249 252 255 259 260 261 262 263 269 273 272 276 283 282 272 270 277 270 260 260 259 264 264 260 263 257 254 256 254 246 250 255 252 259 263 259 256 255 255 253 253 247 243 240 236 240
nan nan nan nan nan nan nan nan nan nan nan nan nan nan nan nan nan nan nan nan nan nan nan nan 229 234 248 253 253 249 257 258 259 258 255 253 253 252 250 248 246 246 249 254 258 259 259 262 265 270 274 280 284 284 288 285 275 281 283 279 270 264 256 260 261 257 253 250 248 244 243 245 252 259 267 267 260 253 251 253 255 252 248 242 239 236
nan nan nan nan nan nan nan nan nan nan nan nan nan nan nan nan nan nan nan nan nan nan nan 231 234 236 246 246 244 242 253 256 256 258 260 258 256 254 254 252 250 250 249 250 256 259 260 262 265 273 277 282 289 291 287 284 285 285 283 275 264 261 255 245 248 266 266 262 251 246 248 249 251 257 264 268 264 258 249 249 251 254 252 245 241 241
nan nan nan nan nan nan nan nan nan nan nan nan nan nan nan nan nan nan nan nan nan nan nan 234 257 250 249 249 242 246 258 259 262 264 264 259 255 256 255 255 255 253 252 253 257 260 261 267 268 268 271 276 285 286 280 274 279 282 281 277 279 275 268 259 245 240 256 261 249 242 242 245 249 251 256 257 257 250 247 242 241 245 249 247 241 240
nan nan nan nan nan nan nan nan nan nan nan nan nan nan nan nan nan nan nan nan nan nan nan nan 234 239 242 249 249 247 257 261 261 262 262 261 258 255 254 254 255 256 257 257 255 255 253 252 259 264 267 275 282 287 286 283 277 273 270 271 270 277 266 250 245 243 220 219 237 237 233 233 237 238 246 247 249 248 247 249 248 251 251 244 239 236
nan nan nan nan nan nan nan nan nan nan nan nan nan nan nan nan nan nan nan nan nan nan nan 228 238 243 nan 246 251 251 253 262 261 260 262 265 265 262 260 258 259 262 263 261 258 255 252 250 247 249 258 264 267 280 290 291 282 272 266 256 246 248 243 229 233 236 228 220 233 238 235 229 226 230 236 241 249 251 253 255 257 247 245 244 238 232
nan nan nan nan nan nan nan nan nan nan nan nan nan nan nan nan nan nan nan nan nan nan nan nan nan nan 248 248 253 258 257 260 265 266 267 269 269 269 266 263 262 261 260 258 253 248 246 245 244 242 244 247 248 261 288 314 302 268 245 255 236 228 224 215 206 214 222 228 235 247 251 246 244 241 234 238 249 255 259 260 258 253 247 242 240 233
nan nan nan nan nan nan nan nan nan nan nan nan nan nan nan nan nan nan nan nan nan nan nan nan nan nan 252 248 254 255 253 256 257 265 268 269 272 272 268 261 259 258 256 255 249 240 239 238 242 244 244 245 245 255 268 300 336 316 221 211 209 209 214 216 210 216 232 238 251 260 269 267 256 255 243 242 251 258 264 266 264 257 252 250 243 237
nan nan nan nan nan nan nan nan nan nan nan nan nan nan nan nan nan nan nan nan nan nan nan nan 256 251 253 257 260 258 260 261 260 263 265 266 272 275 262 252 252 252 251 249 245 241 240 238 240 246 244 244 244 252 258 270 280 132 157 181 198 207 207 211 215 216 231 255 270 282 267 254 257 255 250 247 252 260 267 268 262 257 256 250 244 236
208 nan nan nan nan nan nan nan nan nan nan nan nan nan nan nan nan nan nan nan nan nan nan nan 245 256 259 263 262 264 266 267 264 260 262 262 267 269 258 247 244 245 245 245 242 242 242 240 240 241 241 245 249 248 249 246 233 205 188 189 191 196 208 220 226 232 248 257 264 265 261 257 252 253 252 256 257 263 267 268 258 253 254 249 242 240
nan nan nan nan nan nan nan nan nan nan nan nan nan nan nan nan nan nan nan nan nan nan nan nan nan 255 264 265 nan 262 264 263 261 255 251 257 256 253 249 245 243 243 241 238 238 238 240 239 236 236 232 238 239 236 227 217 209 207 209 209 200 200 200 217 240 246 254 258 256 250 254 247 247 257 251 261 260 259 265 266 258 250 252 249 246 242
nan nan nan nan nan nan nan nan nan nan nan nan nan nan nan nan nan nan nan nan nan nan nan nan 249 nan 255 255 256 257 260 261 257 252 251 255 253 246 nan 245 241 240 239 239 240 240 240 243 243 238 232 231 229 220 207 201 200 199 201 202 205 202 203 200 203 255 248 240 247 258 263 269 264 270 262 264 263 259 259 261 255 250 246 248 246 241
nan nan nan nan nan nan nan nan nan nan nan nan nan nan nan nan nan nan nan nan nan nan nan nan 261 264 261 257 nan nan 252 253 254 251 252 255 248 242 nan nan 246 245 242 240 nan nan nan 238 238 239 236 232 230 223 nan nan 204 208 206 203 205 206 200 196 199 243 265 268 270 270 274 270 271 271 264 258 259 253 255 256 254 250 248 245 246 240
nan nan nan nan nan nan 217 nan 220 230 nan 224 nan nan nan nan nan nan nan nan nan nan nan 245 258 257 259 259 nan 258 nan 251 252 252 nan nan 241 240 243 245 nan 245 243 244 nan nan nan nan nan 237 nan nan nan nan nan nan nan nan nan nan nan 210 210 214 216 237 263 269 282 286 274 266 265 259 250 235 230 244 246 251 251 248 247 246 246 240
nan nan nan nan nan nan nan nan nan nan nan nan nan nan nan nan nan nan nan nan nan nan 262 nan nan nan 262 260 nan nan nan nan 251 251 nan nan 240 242 243 nan 241 240 238 239 nan nan nan nan nan nan nan nan nan nan nan nan nan nan nan nan nan nan nan 221 236 255 278 291 284 268 265 272 275 272 250 235 225 235 246 223 228 249 249 247 240 233
223 nan nan nan nan nan nan nan nan nan nan nan nan nan nan nan nan nan nan nan nan nan 263 nan nan nan nan nan nan 256 253 249 nan nan nan nan 235 235 nan 235 236 nan 235 236 nan nan nan nan nan nan nan nan nan nan nan nan nan nan nan nan nan nan nan nan 244 nan nan nan nan nan 257 269 278 277 263 243 228 235 243 230 212 246 251 244 239 236
nan nan nan nan nan nan nan nan nan nan nan nan nan nan nan nan nan nan nan nan nan nan nan nan nan nan nan nan nan nan 257 255 252 nan nan nan nan nan nan nan 233 nan nan 234 234 nan nan nan nan nan nan nan nan nan nan nan nan nan nan nan nan nan nan nan nan 248 267 289 nan nan 262 266 270 267 261 246 237 238 240 227 nan 241 252 249 241 237
220 225 nan nan nan nan nan nan nan nan nan nan nan nan nan nan nan nan nan nan nan nan nan nan nan nan nan nan nan nan 259 255 nan nan nan nan nan nan nan nan 231 nan nan nan 232 232 nan nan nan nan nan nan nan nan nan nan nan nan nan nan nan nan nan nan nan nan nan 243 276 nan 262 263 264 265 260 250 242 241 236 229 214 235 257 252 243 235
nan nan nan nan nan nan nan nan nan nan nan nan nan nan 221 236 nan 239 nan nan nan nan nan nan nan nan nan nan nan nan nan nan nan nan nan nan nan nan nan nan nan nan nan nan nan 231 nan nan nan nan nan nan nan nan nan nan nan nan nan nan nan nan nan nan nan nan nan nan nan nan nan 258 260 263 258 247 238 235 240 235 nan nan 256 254 241 234
nan nan nan nan nan nan nan nan nan nan nan nan nan nan nan nan nan nan nan nan nan nan nan nan nan nan nan nan nan nan nan nan nan nan nan nan nan nan nan nan nan nan nan nan nan nan nan nan nan nan nan nan nan nan nan nan nan nan nan nan nan nan nan nan nan nan nan nan nan nan nan nan 256 256 255 248 243 241 244 nan nan nan 251 251 238 234
nan nan nan nan nan nan nan nan nan nan nan nan nan nan nan nan nan nan nan nan nan nan nan nan nan nan nan nan nan nan nan nan nan nan nan nan nan nan nan nan nan nan nan nan nan nan nan nan nan nan nan nan nan nan nan nan nan nan nan nan nan nan nan nan nan nan 243 nan nan nan nan 222 256 258 249 244 244 240 236 nan nan nan 246 240 nan nan
nan nan nan nan nan nan nan nan nan nan nan nan nan nan nan nan nan nan nan nan nan nan nan nan nan nan nan nan nan nan nan nan nan nan nan nan nan nan nan nan nan nan nan nan nan nan nan nan nan nan nan nan nan nan nan nan nan nan nan nan nan nan nan nan nan nan nan nan nan nan nan 219 242 247 nan nan 247 246 nan nan nan nan nan nan nan nan
nan nan nan nan nan nan nan nan nan nan nan nan nan nan nan nan nan nan nan nan nan nan nan nan nan nan nan nan nan nan nan nan nan nan nan nan nan nan nan nan nan nan nan nan nan nan nan nan nan nan nan nan nan nan nan nan nan nan nan nan nan nan nan nan nan nan nan nan nan nan nan nan nan nan nan nan nan nan nan nan nan nan nan nan nan nan
nan nan nan nan nan nan nan nan nan nan nan nan nan nan nan nan nan nan nan nan nan nan nan nan nan nan nan nan nan nan nan nan nan nan nan nan nan nan nan nan nan nan nan nan nan nan nan nan nan nan nan nan nan nan nan nan nan nan nan nan nan nan nan nan nan nan nan nan nan nan nan nan nan 218 230 nan nan nan nan nan nan nan nan nan nan nan
nan nan nan nan nan nan nan nan nan nan nan nan nan nan nan nan nan nan nan nan nan nan nan nan nan nan nan nan nan nan nan nan nan nan nan nan nan nan nan nan nan nan nan nan nan nan nan nan nan nan nan nan nan nan nan nan nan nan nan nan nan nan nan nan nan nan nan nan nan nan nan nan nan nan nan nan nan nan nan nan nan nan nan nan nan nan
nan nan nan nan nan nan nan nan nan nan nan nan nan nan nan nan nan nan nan nan nan nan nan nan nan nan nan nan nan nan nan nan nan nan nan nan nan nan nan nan nan nan nan nan nan nan nan nan nan nan nan nan nan nan nan nan nan nan nan nan nan nan nan nan nan nan nan nan nan nan nan nan nan nan nan 222 nan nan nan nan nan nan nan nan nan nan
nan nan nan nan nan nan nan nan nan nan nan nan nan nan nan nan nan nan nan nan nan nan nan nan nan nan nan nan nan nan nan nan nan nan nan nan nan nan nan nan nan nan nan nan nan nan nan nan nan nan nan nan nan nan nan nan nan nan nan nan nan nan nan nan nan nan nan nan nan nan nan nan nan nan nan nan nan nan nan nan nan nan nan nan nan nan
nan nan nan nan nan nan nan nan nan nan nan nan nan nan nan nan nan nan nan nan nan nan nan nan nan nan nan nan nan nan nan nan nan nan nan nan nan nan nan nan nan nan nan nan nan nan nan nan nan nan nan nan nan nan nan nan nan nan nan nan nan nan nan nan nan nan nan nan nan nan nan nan nan nan nan nan nan nan nan nan nan nan nan nan nan nan
nan nan nan nan nan nan nan nan nan nan nan nan nan nan nan nan nan nan nan nan nan nan nan nan nan nan nan nan nan nan nan nan nan nan nan nan nan nan nan nan nan nan nan nan nan nan nan nan nan nan nan nan nan nan nan nan nan nan nan nan nan nan nan nan nan nan nan nan nan nan nan nan nan nan nan nan nan nan nan nan nan nan nan nan nan nan
nan nan nan nan nan nan nan nan nan nan nan nan nan nan nan nan nan nan nan nan nan nan nan nan nan nan nan nan nan nan nan nan nan nan nan nan nan nan nan nan nan nan nan nan nan nan nan nan nan nan nan nan nan nan nan nan nan nan nan nan nan nan nan nan nan nan nan nan nan nan nan nan nan nan nan nan nan nan nan nan nan nan nan nan nan nan
nan nan nan nan nan nan nan nan nan nan nan nan nan nan nan nan nan nan nan nan nan nan nan nan nan nan nan nan nan nan nan nan nan nan nan nan nan nan nan nan nan nan nan nan nan nan nan nan nan nan nan nan nan nan nan nan nan nan nan nan nan nan nan nan nan nan nan nan nan nan nan nan nan nan nan nan nan nan nan nan nan nan nan nan nan nan
nan nan nan nan nan nan nan nan nan nan nan nan nan nan nan nan nan nan nan nan nan nan nan nan nan nan nan nan nan nan nan nan nan nan nan nan nan nan nan nan nan nan nan nan nan nan nan nan nan nan nan nan nan nan nan nan nan nan nan nan nan nan nan nan nan nan nan nan nan nan nan nan nan nan nan nan nan nan nan nan nan nan nan nan nan nan
nan nan nan nan nan nan nan nan nan nan nan nan nan nan nan nan nan nan nan nan nan nan nan nan nan nan nan nan nan nan nan nan nan nan nan nan nan nan nan nan nan nan nan nan nan nan nan nan nan nan nan nan nan nan nan nan nan nan nan nan nan nan nan nan nan nan nan nan nan nan nan nan nan nan nan nan nan nan nan nan nan nan nan nan nan nan
nan nan nan nan nan nan nan nan nan nan nan nan nan nan nan nan nan nan nan nan nan nan nan nan nan nan nan nan nan nan nan nan nan nan nan nan nan nan nan nan nan nan nan nan nan nan nan nan nan nan nan nan nan nan nan nan nan nan nan nan nan nan nan nan nan nan nan nan nan nan nan nan nan nan nan nan nan nan nan nan nan nan nan nan nan nan
nan nan nan nan nan nan nan nan nan nan nan nan nan nan nan nan nan nan nan nan nan nan nan nan nan nan nan nan nan nan nan nan nan nan nan nan nan nan nan nan nan nan nan nan nan nan nan nan nan nan nan nan nan nan nan nan nan nan nan nan nan nan nan nan nan nan nan nan nan nan nan nan nan nan nan nan nan nan nan nan nan nan nan nan nan nan
nan nan nan nan nan nan nan nan nan nan nan nan nan nan nan nan nan nan nan nan nan nan nan nan nan nan nan nan nan nan nan nan nan nan nan nan nan nan nan nan nan nan nan nan nan nan nan nan nan nan nan nan nan nan nan nan nan nan nan nan nan nan nan nan nan nan nan nan nan nan nan nan nan nan nan nan nan nan nan nan nan nan nan nan nan nan
nan nan nan nan nan nan nan nan nan nan nan nan nan nan nan nan nan nan nan nan nan nan nan nan nan nan nan nan nan nan nan nan nan nan nan nan nan nan nan nan nan nan nan nan nan nan nan nan nan nan nan nan nan nan nan nan nan nan nan nan nan nan nan nan nan nan nan nan nan nan nan nan nan nan nan nan nan nan nan nan nan nan nan nan nan nan